Content
SEND FEEDBACK

Daily
Averages
Monthly
Summary
United States of America

CARTER LAKE, IOWA


Home > North America > United States > Iowa
Elevation: 982 feet     Latitude: 41 18N     Longitude: 095 54W

WEATHER
 
SELECT A DAY
Number of Records: 195,038;   Date Range: 1/1/95 - 11/27/14
 
SHARE

PRINT THIS DATA

[ ← Previous Day ]
WEATHER ALMANAC - JANUARY 31, 2013
[ Next Day → ]
[ °C ]   °F
Weather ElementAverageHighLow
Temperature6.1 °F10.9 °F (1:52 am) (10:52 pm)
Dewpoint-4.2 °F3 °F (1:52 am)-9 °F (9:52 pm)
Humidity62.7 %70 % (1:52 am)55 % (3:52 pm)
Barometer30.29 in30.51 in (11:52 pm)30.01 in (1:52 am)
Wind Speed17.5 mph27.6 mph (10:52 am)
Wind Gust33.4 mph (11:39 am)
Weather ElementAverage
Visibility9.2 mi
Wind DirectionNW (318.4 °)

Weather ElementTotal
Precipitation---
Heating Degree Days59.6 (Base 65)
Averaged from 25 records on January 31, 2013
WEATHER CONDITIONS BREAKOUT
WIND DIRECTION BREAKOUT
WEATHER BY HOUR - JANUARY 31, 2013
[ °C ]   °F
Local TimeTemperatureDewpointHumidityBarometerVisibilityWind DirectionWind SpeedGust SpeedPrecipitationEventsConditions
1:52 AM10.9 °F3.0 °F70 %30.01 in10.0 miNNW (330°)12.7 mphScattered Clouds
2:52 AM9.0 °F1.0 °F70 %30.04 in10.0 miNW (320°)15.0 mphMostly Cloudy
3:52 AM9.0 °F0.0 °F67 %30.04 in10.0 miNW (320°)12.7 mphOvercast
4:52 AM8.1 °F-2.0 °F64 %30.07 in10.0 miNW (320°)15.0 mphMostly Cloudy
5:52 AM7.0 °F-0.9 °F70 %30.09 in10.0 miNNW (330°)13.8 mphOvercast
6:52 AM7.0 °F-2.9 °F64 %30.11 in10.0 miNNW (330°)16.1 mphOvercast
7:52 AM6.1 °F-4.0 °F63 %30.16 in10.0 miNW (320°)11.5 mphScattered Clouds
8:52 AM7.0 °F-5.1 °F58 %30.19 in10.0 miNW (320°)17.3 mph25.3 mphScattered Clouds
9:52 AM7.0 °F-4.0 °F61 %30.25 in10.0 miNW (320°)25.3 mph31.1 mphMostly Cloudy
10:50 AM6.8 °F-2.2 °F67 %30.24 in6.0 miNW (310°)23.0 mphHaze
10:52 AM7.0 °F-2.9 °F64 %30.30 in6.0 miNW (320°)27.6 mph32.2 mphHaze
11:39 AM6.8 °F-4.0 °F61 %30.25 in7.0 miNW (310°)26.5 mph33.4 mph0.00 inMostly Cloudy
11:52 AM7.0 °F-4.0 °F61 %30.32 in7.0 miNW (320°)20.7 mph29.9 mph0.00 inMostly Cloudy
12:52 PM7.0 °F-4.0 °F61 %30.34 in7.0 miNW (310°)24.2 mph33.4 mphScattered Clouds
1:52 PM9.0 °F-2.9 °F59 %30.34 in7.0 miNW (310°)25.3 mph29.9 mphScattered Clouds
2:52 PM9.0 °F-4.0 °F56 %30.36 in10.0 miNW (320°)24.2 mph29.9 mphScattered Clouds
3:52 PM8.1 °F-5.1 °F55 %30.39 in10.0 miNW (320°)23.0 mphScattered Clouds
4:52 PM7.0 °F-5.1 °F58 %30.40 in10.0 miNW (310°)23.0 mph26.5 mphPartly Cloudy
5:52 PM5.0 °F-6.0 °F61 %30.43 in10.0 miNW (310°)18.4 mphPartly Cloudy
6:52 PM3.0 °F-8.0 °F60 %30.45 in10.0 miNW (320°)13.8 mphClear
7:52 PM1.9 °F-8.0 °F63 %30.47 in10.0 miNNW (330°)12.7 mphClear
8:52 PM1.9 °F-8.0 °F63 %30.48 in10.0 miNNW (330°)9.2 mphClear
9:52 PM1.0 °F-9.0 °F63 %30.49 in10.0 miNW (310°)10.4 mphClear
10:52 PM0.0 °F-9.0 °F66 %30.50 in10.0 miNW (320°)8.1 mphClear
11:52 PM1.0 °F-9.0 °F63 %30.51 in10.0 miWNW (300°)9.2 mphClear
Hourly data recorded from KOMA, located miles away from Carter Lake, Iowa







STORIES FROM OUR PARTNERS